Time,TemperatureF,DewpointF,PressureIn,WindDirection,WindDirectionDegrees,WindSpeedMPH,WindSpeedGustMPH,Humidity,HourlyPrecipIn,Conditions,Clouds,dailyrainin,SoftwareType,DateUTC
2013-01-25 00:22:00,13.0,-99.9,30.50,North,-999,-999.0,-999.0,-999,-99.99,,,-99.99,,2013-01-25 05:22:00,
2013-01-25 00:32:00,13.0,-99.9,30.50,North,-999,-999.0,-999.0,-999,-99.99,,,-99.99,,2013-01-25 05:32:00,
2013-01-25 00:43:00,13.0,-99.9,30.50,North,-999,-999.0,-999.0,-999,-99.99,,,-99.99,,2013-01-25 05:43:00,
2013-01-25 00:52:00,13.0,-99.9,30.50,North,-999,-999.0,-999.0,-999,-99.99,,,-99.99,,2013-01-25 05:52:00,
2013-01-25 01:22:00,13.0,-99.9,30.50,North,-999,-999.0,-999.0,-999,-99.99,,,-99.99,,2013-01-25 06:22:00,
2013-01-25 01:32:00,13.0,-99.9,30.50,North,-999,-999.0,-999.0,-999,-99.99,,,-99.99,,2013-01-25 06:32:00,
2013-01-25 01:42:00,13.0,-99.9,30.50,North,-999,-999.0,-999.0,-999,-99.99,,,-99.99,,2013-01-25 06:42:00,
2013-01-25 01:52:00,11.0,-99.9,30.51,North,-999,-999.0,-999.0,-999,-99.99,,,-99.99,,2013-01-25 06:52:00,
2013-01-25 02:22:00,11.0,-99.9,30.51,North,-999,-999.0,-999.0,-999,-99.99,,,-99.99,,2013-01-25 07:22:00,
2013-01-25 02:32:00,11.0,-99.9,30.51,North,-999,-999.0,-999.0,-999,-99.99,,,-99.99,,2013-01-25 07:32:00,
2013-01-25 02:42:00,11.0,-99.9,30.51,North,-999,-999.0,-999.0,-999,-99.99,,,-99.99,,2013-01-25 07:42:00,
2013-01-25 02:52:00,11.0,-99.9,30.50,North,-999,-999.0,-999.0,-999,-99.99,,,-99.99,,2013-01-25 07:52:00,
2013-01-25 03:22:00,11.0,-99.9,30.50,North,-999,-999.0,-999.0,-999,-99.99,,,-99.99,,2013-01-25 08:22:00,
2013-01-25 03:32:00,11.0,-99.9,30.50,North,-999,-999.0,-999.0,-999,-99.99,,,-99.99,,2013-01-25 08:32:00,
2013-01-25 03:42:00,11.0,-99.9,30.50,North,-999,-999.0,-999.0,-999,-99.99,,,-99.99,,2013-01-25 08:42:00,
2013-01-25 03:52:00,10.0,-99.9,30.50,North,-999,-999.0,-999.0,-999,-99.99,,,-99.99,,2013-01-25 08:52:00,
2013-01-25 04:21:00,10.0,-99.9,30.50,North,-999,-999.0,-999.0,-999,-99.99,,,-99.99,,2013-01-25 09:21:00,
2013-01-25 04:32:00,10.0,-99.9,30.50,North,-999,-999.0,-999.0,-999,-99.99,,,-99.99,,2013-01-25 09:32:00,
2013-01-25 04:42:00,10.0,-99.9,30.50,North,-999,-999.0,-999.0,-999,-99.99,,,-99.99,,2013-01-25 09:42:00,
2013-01-25 04:52:00,10.0,-99.9,30.50,North,-999,-999.0,-999.0,-999,-99.99,,,-99.99,,2013-01-25 09:52:00,
2013-01-25 05:22:00,10.0,-99.9,30.50,North,-999,-999.0,-999.0,-999,-99.99,,,-99.99,,2013-01-25 10:22:00,
2013-01-25 05:32:00,10.0,-99.9,30.50,North,-999,-999.0,-999.0,-999,-99.99,,,-99.99,,2013-01-25 10:32:00,
2013-01-25 05:42:00,10.0,-99.9,30.50,North,-999,-999.0,-999.0,-999,-99.99,,,-99.99,,2013-01-25 10:42:00,
2013-01-25 05:52:00,11.0,-99.9,30.49,North,-999,-999.0,-999.0,-999,-99.99,,,-99.99,,2013-01-25 10:52:00,
2013-01-25 06:22:00,11.0,-99.9,30.49,North,-999,-999.0,-999.0,-999,-99.99,,,-99.99,,2013-01-25 11:22:00,
2013-01-25 06:33:00,11.0,-99.9,30.49,North,-999,-999.0,-999.0,-999,-99.99,,,-99.99,,2013-01-25 11:33:00,
2013-01-25 06:42:00,11.0,-99.9,30.49,North,-999,-999.0,-999.0,-999,-99.99,,,-99.99,,2013-01-25 11:42:00,
2013-01-25 06:52:00,11.0,-99.9,30.48,North,-999,-999.0,-999.0,-999,-99.99,,,-99.99,,2013-01-25 11:52:00,
2013-01-25 07:22:00,11.0,-99.9,30.48,North,-999,-999.0,-999.0,-999,-99.99,,,-99.99,,2013-01-25 12:22:00,
2013-01-25 07:33:00,11.0,-99.9,30.48,North,-999,-999.0,-999.0,-999,-99.99,,,-99.99,,2013-01-25 12:33:00,
2013-01-25 07:42:00,11.0,-99.9,30.48,North,-999,-999.0,-999.0,-999,-99.99,,,-99.99,,2013-01-25 12:42:00,
2013-01-25 07:52:00,11.0,-99.9,30.47,North,-999,-999.0,-999.0,-999,-99.99,,,-99.99,,2013-01-25 12:52:00,
2013-01-25 08:22:00,11.0,-99.9,30.47,North,-999,-999.0,-999.0,-999,-99.99,,,-99.99,,2013-01-25 13:22:00,
2013-01-25 08:33:00,11.0,-99.9,30.47,North,-999,-999.0,-999.0,-999,-99.99,,,-99.99,,2013-01-25 13:33:00,
2013-01-25 08:43:00,11.0,-99.9,30.47,North,-999,-999.0,-999.0,-999,-99.99,,,-99.99,,2013-01-25 13:43:00,
2013-01-25 08:52:00,13.0,-99.9,30.49,North,-999,-999.0,-999.0,-999,-99.99,,,-99.99,,2013-01-25 13:52:00,
2013-01-25 09:23:00,13.0,-99.9,30.49,North,-999,-999.0,-999.0,-999,-99.99,,,-99.99,,2013-01-25 14:23:00,
2013-01-25 09:33:00,13.0,-99.9,30.49,North,-999,-999.0,-999.0,-999,-99.99,,,-99.99,,2013-01-25 14:33:00,
2013-01-25 09:42:00,13.0,-99.9,30.49,North,-999,-999.0,-999.0,-999,-99.99,,,-99.99,,2013-01-25 14:42:00,
2013-01-25 09:52:00,13.0,-99.9,30.47,North,-999,-999.0,-999.0,-999,-99.99,,,-99.99,,2013-01-25 14:52:00,
2013-01-25 10:23:00,13.0,-99.9,30.47,North,-999,-999.0,-999.0,-999,-99.99,,,-99.99,,2013-01-25 15:23:00,
2013-01-25 10:33:00,13.0,-99.9,30.47,North,-999,-999.0,-999.0,-999,-99.99,,,-99.99,,2013-01-25 15:33:00,
2013-01-25 10:43:00,13.0,-99.9,30.47,North,-999,-999.0,-999.0,-999,-99.99,,,-99.99,,2013-01-25 15:43:00,
2013-01-25 10:52:00,15.0,-99.9,30.43,North,-999,-999.0,-999.0,-999,-99.99,,,-99.99,,2013-01-25 15:52:00,
2013-01-25 11:23:00,15.0,-99.9,30.43,North,-999,-999.0,-999.0,-999,-99.99,,,-99.99,,2013-01-25 16:23:00,
2013-01-25 11:33:00,15.0,-99.9,30.43,North,-999,-999.0,-999.0,-999,-99.99,,,-99.99,,2013-01-25 16:33:00,
2013-01-25 11:43:00,15.0,-99.9,30.43,North,-999,-999.0,-999.0,-999,-99.99,,,-99.99,,2013-01-25 16:43:00,
2013-01-25 11:52:00,17.0,-99.9,30.39,North,-999,-999.0,-999.0,-999,-99.99,,,-99.99,,2013-01-25 16:52:00,
2013-01-25 12:23:00,17.0,-99.9,30.39,North,-999,-999.0,-999.0,-999,-99.99,,,-99.99,,2013-01-25 17:23:00,
2013-01-25 12:33:00,17.0,-99.9,30.39,North,-999,-999.0,-999.0,-999,-99.99,,,-99.99,,2013-01-25 17:33:00,
2013-01-25 12:43:00,17.0,-99.9,30.39,North,-999,-999.0,-999.0,-999,-99.99,,,-99.99,,2013-01-25 17:43:00,
2013-01-25 12:52:00,17.0,-99.9,30.34,North,-999,-999.0,-999.0,-999,-99.99,,,-99.99,,2013-01-25 17:52:00,
2013-01-25 13:24:00,17.0,-99.9,30.34,North,-999,-999.0,-999.0,-999,-99.99,,,-99.99,,2013-01-25 18:24:00,
2013-01-25 13:33:00,17.0,-99.9,30.34,North,-999,-999.0,-999.0,-999,-99.99,,,-99.99,,2013-01-25 18:33:00,
2013-01-25 13:43:00,17.0,-99.9,30.34,North,-999,-999.0,-999.0,-999,-99.99,,,-99.99,,2013-01-25 18:43:00,
2013-01-25 13:52:00,20.0,-99.9,30.29,North,-999,-999.0,-999.0,-999,-99.99,,,-99.99,,2013-01-25 18:52:00,
2013-01-25 14:23:00,20.0,-99.9,30.29,North,-999,-999.0,-999.0,-999,-99.99,,,-99.99,,2013-01-25 19:23:00,
2013-01-25 14:33:00,20.0,-99.9,30.29,North,-999,-999.0,-999.0,-999,-99.99,,,-99.99,,2013-01-25 19:33:00,
2013-01-25 14:43:00,20.0,-99.9,30.29,North,-999,-999.0,-999.0,-999,-99.99,,,-99.99,,2013-01-25 19:43:00,
2013-01-25 14:52:00,20.0,-99.9,30.25,North,-999,-999.0,-999.0,-999,-99.99,,,-99.99,,2013-01-25 19:52:00,
2013-01-25 15:23:00,20.0,-99.9,30.25,North,-999,-999.0,-999.0,-999,-99.99,,,-99.99,,2013-01-25 20:23:00,
2013-01-25 15:33:00,20.0,-99.9,30.25,North,-999,-999.0,-999.0,-999,-99.99,,,-99.99,,2013-01-25 20:33:00,
2013-01-25 15:43:00,20.0,-99.9,30.25,North,-999,-999.0,-999.0,-999,-99.99,,,-99.99,,2013-01-25 20:43:00,
2013-01-25 15:52:00,19.0,-99.9,30.24,North,-999,-999.0,-999.0,-999,-99.99,,,-99.99,,2013-01-25 20:52:00,
2013-01-25 16:23:00,19.0,-99.9,30.24,North,-999,-999.0,-999.0,-999,-99.99,,,-99.99,,2013-01-25 21:23:00,
2013-01-25 16:33:00,19.0,-99.9,30.24,North,-999,-999.0,-999.0,-999,-99.99,,,-99.99,,2013-01-25 21:33:00,
2013-01-25 16:43:00,19.0,-99.9,30.24,North,-999,-999.0,-999.0,-999,-99.99,,,-99.99,,2013-01-25 21:43:00,
2013-01-25 16:52:00,16.0,-99.9,30.21,North,-999,-999.0,-999.0,-999,-99.99,,,-99.99,,2013-01-25 21:52:00,
2013-01-25 17:23:00,16.0,-99.9,30.21,North,-999,-999.0,-999.0,-999,-99.99,,,-99.99,,2013-01-25 22:23:00,
2013-01-25 17:33:00,16.0,-99.9,30.21,North,-999,-999.0,-999.0,-999,-99.99,,,-99.99,,2013-01-25 22:33:00,
2013-01-25 17:42:00,16.0,-99.9,30.21,North,-999,-999.0,-999.0,-999,-99.99,,,-99.99,,2013-01-25 22:42:00,
2013-01-25 17:52:00,16.0,-99.9,30.18,North,-999,-999.0,-999.0,-999,-99.99,,,-99.99,,2013-01-25 22:52:00,
2013-01-25 18:22:00,16.0,-99.9,30.18,North,-999,-999.0,-999.0,-999,-99.99,,,-99.99,,2013-01-25 23:22:00,
2013-01-25 18:32:00,16.0,-99.9,30.18,North,-999,-999.0,-999.0,-999,-99.99,,,-99.99,,2013-01-25 23:32:00,
2013-01-25 18:42:00,16.0,-99.9,30.18,North,-999,-999.0,-999.0,-999,-99.99,,,-99.99,,2013-01-25 23:42:00,
2013-01-25 18:52:00,16.0,-99.9,30.17,North,-999,-999.0,-999.0,-999,-99.99,,,-99.99,,2013-01-25 23:52:00,
2013-01-25 19:22:00,16.0,-99.9,30.17,North,-999,-999.0,-999.0,-999,-99.99,,,-99.99,,2013-01-26 00:22:00,
2013-01-25 19:33:00,16.0,-99.9,30.17,North,-999,-999.0,-999.0,-999,-99.99,,,-99.99,,2013-01-26 00:33:00,
2013-01-25 19:42:00,16.0,-99.9,30.17,North,-999,-999.0,-999.0,-999,-99.99,,,-99.99,,2013-01-26 00:42:00,
2013-01-25 19:52:00,16.0,-99.9,30.16,North,-999,-999.0,-999.0,-999,-99.99,,,-99.99,,2013-01-26 00:52:00,
2013-01-25 20:22:00,16.0,-99.9,30.16,North,-999,-999.0,-999.0,-999,-99.99,,,-99.99,,2013-01-26 01:22:00,
2013-01-25 20:32:00,16.0,-99.9,30.16,North,-999,-999.0,-999.0,-999,-99.99,,,-99.99,,2013-01-26 01:32:00,
2013-01-25 20:42:00,16.0,-99.9,30.16,North,-999,-999.0,-999.0,-999,-99.99,,,-99.99,,2013-01-26 01:42:00,
2013-01-25 20:52:00,12.0,-99.9,30.14,North,-999,-999.0,-999.0,-999,-99.99,,,-99.99,,2013-01-26 01:52:00,
2013-01-25 21:22:00,12.0,-99.9,30.14,North,-999,-999.0,-999.0,-999,-99.99,,,-99.99,,2013-01-26 02:22:00,
2013-01-25 21:32:00,12.0,-99.9,30.14,North,-999,-999.0,-999.0,-999,-99.99,,,-99.99,,2013-01-26 02:32:00,
2013-01-25 21:42:00,12.0,-99.9,30.14,North,-999,-999.0,-999.0,-999,-99.99,,,-99.99,,2013-01-26 02:42:00,
2013-01-25 21:52:00,7.0,-99.9,30.12,North,-999,-999.0,-999.0,-999,-99.99,,,-99.99,,2013-01-26 02:52:00,
2013-01-25 22:22:00,7.0,-99.9,30.12,North,-999,-999.0,-999.0,-999,-99.99,,,-99.99,,2013-01-26 03:22:00,
2013-01-25 22:32:00,7.0,-99.9,30.12,North,-999,-999.0,-999.0,-999,-99.99,,,-99.99,,2013-01-26 03:32:00,
2013-01-25 22:43:00,7.0,-99.9,30.12,North,-999,-999.0,-999.0,-999,-99.99,,,-99.99,,2013-01-26 03:43:00,
2013-01-25 22:52:00,4.0,-99.9,30.11,North,-999,-999.0,-999.0,-999,-99.99,,,-99.99,,2013-01-26 03:52:00,
2013-01-25 23:22:00,4.0,-99.9,30.11,North,-999,-999.0,-999.0,-999,-99.99,,,-99.99,,2013-01-26 04:22:00,
2013-01-25 23:32:00,4.0,-99.9,30.11,North,-999,-999.0,-999.0,-999,-99.99,,,-99.99,,2013-01-26 04:32:00,
2013-01-25 23:43:00,4.0,-99.9,30.11,North,-999,-999.0,-999.0,-999,-99.99,,,-99.99,,2013-01-26 04:43:00,
2013-01-25 23:52:00,3.0,-99.9,30.12,North,-999,-999.0,-999.0,-999,-99.99,,,-99.99,,2013-01-26 04:52:00,